Tracking 19170 objects as of 22-May-2018
HD Live streaming from Space Station
objects crossing your sky now

PICOSAT 4

Track PICOSAT 4 now!
10-day predictions
PICOSAT 4 is classified as:


NORAD ID: 26092
Int'l Code: 2000-004K
Perigee: 730.9 km
Apogee: 777.9 km
Inclination: 100.2 °
Period: 99.8 minutes
Semi major axis: 7125 km
RCS: 0.039 m2 (small)
Launch date: January 27, 2000
Source: United States (US)
Launch site: AIR FORCE WESTERN TEST RANGE (AFWTR)
aabbcc
Your satellite tracking list
Your tracking list is empty




NASA's NSSDC Master Catalog

Two Line Element Set (TLE):
1 26092U 00004K   18141.87304894  .00000136  00000-0  57812-4 0  9998
2 26092 100.1829 261.1186 0032994 292.3825  67.3865 14.43407374960574
Source of the keplerian elements: AFSPC